C/2020 PV6 ( PanSTARRS )

Japanese version
Home page
Updated on September 18, 2021

---------------------------------------------------------------------

* Profile

Discovery Date August 13, 2020
Magnitude 21.4 mag
Discoverer Pan-STARRS 1 telescope (Haleakala)

* Pictures

* Orbital Elements

Epoch 2021 Sept. 23.0 TT = JDT 2459480.5
T 2021 Sept. 25.99712 TT                                Rudenko
q   2.2956409            (2000.0)            P               Q
z  +0.0239779      Peri.   71.37984     -0.02673179     -0.91488208
 +/-0.0000000      Node   329.14392     -0.90829824     +0.19052078
e   0.9449552      Incl.  128.23931     +0.41746823     +0.35593906
From 805 observations 2020 July 21-2021 Sept. 2, mean residual 0".9.

* Finding Charts

* Magnitudes Graph

        m1 = 5.5 + 5 log d + 20.0 log r

---------------------------------------------------------------------

The orbital elements are published on M.P.E.C. 2021-R75.
The charts are made with StellaNavigator Ver.10 (AstroArts).
The magnitudes graphs are made with Comet for Windows.

---------------------------------------------------------------------

Copyright(C) Seiichi Yoshida (comet@aerith.net). All rights reserved.